Location: Aciu?a
(46.2833°N, 22.4500°E)
Time: 04:32:50
(UTC+00:00)

Cosmos 1844 - Pass Details

Date: 25 October 2021
Orbit: 822 x 868 km, 70.9° (Epoch: 30 November)

Event Time Altitude Azimuth Distance (km) Brightness Sun altitude
Rises 16:15:58 0° 337° (NNW) 3,463 7.1 -9.2°
Reaches altitude 10° 16:18:41 10° 347° (NNW) 2,520 6.3 -9.6°
Maximum altitude 16:23:58 35° 52° (NE) 1,360 4.4 -10.5°
Drops below altitude 10° 16:29:11 10° 118° (ESE) 2,487 5.6 -11.4°
Enters shadow 16:29:34 - 120° (ESE) 2,614 5.8 -11.5°
